Time,TemperatureF,DewpointF,PressureIn,WindDirection,WindDirectionDegrees,WindSpeedMPH,WindSpeedGustMPH,Humidity,HourlyPrecipIn,Conditions,Clouds,dailyrainin,SoftwareType,DateUTC
2013-01-17 00:00:00,35.6,33.5,29.81,SW,225,4.6,4.6,92,0.00,OVC,,0.80,WeatherDisplay:10.37,2013-01-17 05:00:00,
2013-01-17 00:01:00,35.6,33.5,29.81,WSW,248,3.7,3.7,92,0.00,RA,,0.00,WeatherDisplay:10.37,2013-01-17 05:01:00,
2013-01-17 00:02:00,35.6,33.5,29.81,WSW,248,3.5,3.5,92,0.00,RA,,0.00,WeatherDisplay:10.37,2013-01-17 05:02:00,
2013-01-17 00:03:00,35.6,33.5,29.81,WSW,248,3.5,3.5,92,0.00,RA,,0.00,WeatherDisplay:10.37,2013-01-17 05:03:00,
2013-01-17 00:08:00,35.6,33.5,29.81,WSW,248,2.3,2.5,92,0.00,RA,,0.00,WeatherDisplay:10.37,2013-01-17 05:08:00,
2013-01-17 00:13:00,36.0,33.9,29.81,WSW,248,3.3,3.3,92,0.00,OVC,,0.00,WeatherDisplay:10.37,2013-01-17 05:13:00,
2013-01-17 00:18:00,36.0,33.9,29.81,WSW,248,2.3,2.9,92,0.00,OVC,,0.00,WeatherDisplay:10.37,2013-01-17 05:18:00,
2013-01-17 00:23:00,36.0,33.9,29.81,SW,225,3.5,3.5,92,0.00,OVC,,0.00,WeatherDisplay:10.37,2013-01-17 05:23:00,
2013-01-17 00:28:00,36.0,33.9,29.81,West,270,2.3,2.3,92,0.00,OVC,,0.00,WeatherDisplay:10.37,2013-01-17 05:28:00,
2013-01-17 00:33:00,36.0,33.9,29.81,SW,225,2.3,2.3,92,0.00,OVC,,0.00,WeatherDisplay:10.37,2013-01-17 05:33:00,
2013-01-17 00:38:00,36.0,33.9,29.81,West,270,3.5,3.5,92,0.00,OVC,,0.00,WeatherDisplay:10.37,2013-01-17 05:38:00,
2013-01-17 00:43:00,36.0,33.9,29.83,South,180,2.3,2.3,92,0.00,OVC,,0.00,WeatherDisplay:10.37,2013-01-17 05:43:00,
2013-01-17 00:48:00,36.0,33.9,29.83,WSW,248,3.5,3.5,92,0.00,OVC,,0.00,WeatherDisplay:10.37,2013-01-17 05:48:00,
2013-01-17 00:53:00,36.0,33.9,29.83,WSW,248,2.3,2.3,92,0.00,OVC,,0.00,WeatherDisplay:10.37,2013-01-17 05:53:00,
2013-01-17 00:58:00,36.0,33.9,29.83,SSW,202,2.3,2.3,92,0.00,OVC,,0.00,WeatherDisplay:10.37,2013-01-17 05:58:00,
2013-01-17 01:03:00,36.0,33.9,29.81,WSW,248,3.5,3.5,92,0.00,OVC,,0.00,WeatherDisplay:10.37,2013-01-17 06:03:00,
2013-01-17 01:08:00,36.0,33.9,29.81,WSW,248,2.3,2.3,92,0.00,OVC,,0.00,WeatherDisplay:10.37,2013-01-17 06:08:00,
2013-01-17 01:13:00,36.0,33.9,29.81,West,270,2.3,2.3,92,0.00,OVC,,0.00,WeatherDisplay:10.37,2013-01-17 06:13:00,
2013-01-17 01:18:00,35.8,33.7,29.81,WSW,248,3.5,3.5,92,0.00,OVC,,0.00,WeatherDisplay:10.37,2013-01-17 06:18:00,
2013-01-17 01:23:00,36.0,33.9,29.81,WSW,248,2.3,2.3,92,0.00,OVC,,0.00,WeatherDisplay:10.37,2013-01-17 06:23:00,
2013-01-17 01:28:00,35.8,33.7,29.81,West,270,4.6,4.6,92,0.00,OVC,,0.00,WeatherDisplay:10.37,2013-01-17 06:28:00,
2013-01-17 01:33:00,36.0,33.9,29.81,SSE,158,2.3,2.3,92,0.00,OVC,,0.00,WeatherDisplay:10.37,2013-01-17 06:33:00,
2013-01-17 01:38:00,36.0,33.9,29.81,WSW,248,1.1,1.1,92,0.00,OVC,,0.00,WeatherDisplay:10.37,2013-01-17 06:38:00,
2013-01-17 01:43:00,36.0,33.9,29.81,SSW,202,2.3,2.3,92,0.00,OVC,,0.00,WeatherDisplay:10.37,2013-01-17 06:43:00,
2013-01-17 01:48:00,36.0,33.9,29.81,SW,225,2.3,2.3,92,0.00,OVC,,0.00,WeatherDisplay:10.37,2013-01-17 06:48:00,
2013-01-17 01:53:00,35.8,33.7,29.81,ESE,112,2.3,2.3,92,0.00,OVC,,0.00,WeatherDisplay:10.37,2013-01-17 06:53:00,
2013-01-17 01:58:00,36.0,33.9,29.81,WSW,248,2.3,2.3,92,0.00,OVC,,0.00,WeatherDisplay:10.37,2013-01-17 06:58:00,
2013-01-17 02:03:00,35.8,33.7,29.83,SSW,202,0.0,0.3,92,0.03,RA,,0.03,WeatherDisplay:10.37,2013-01-17 07:03:00,
2013-01-17 02:08:00,36.0,33.9,29.83,WSW,248,1.1,1.1,92,0.03,RA,,0.03,WeatherDisplay:10.37,2013-01-17 07:08:00,
2013-01-17 02:13:00,36.0,33.9,29.83,WSW,248,1.1,1.1,92,0.03,OVC,,0.03,WeatherDisplay:10.37,2013-01-17 07:13:00,
2013-01-17 02:18:00,35.8,33.7,29.83,WSW,248,0.0,0.5,92,0.03,OVC,,0.03,WeatherDisplay:10.37,2013-01-17 07:18:00,
2013-01-17 02:23:00,36.0,33.9,29.84,South,180,0.0,0.5,92,0.03,OVC,,0.03,WeatherDisplay:10.37,2013-01-17 07:23:00,
2013-01-17 02:28:00,36.0,33.9,29.84,SW,225,1.1,1.1,92,0.03,OVC,,0.03,WeatherDisplay:10.37,2013-01-17 07:28:00,
2013-01-17 02:33:00,36.0,33.9,29.84,South,180,0.0,0.3,92,0.03,OVC,,0.03,WeatherDisplay:10.37,2013-01-17 07:33:00,
2013-01-17 02:38:00,36.0,33.9,29.84,SW,225,2.3,2.3,92,0.03,OVC,,0.03,WeatherDisplay:10.37,2013-01-17 07:38:00,
2013-01-17 02:43:00,36.0,33.9,29.84,WSW,248,1.1,1.1,92,0.03,OVC,,0.03,WeatherDisplay:10.37,2013-01-17 07:43:00,
2013-01-17 02:48:00,36.0,33.9,29.84,SSW,202,2.3,2.3,92,0.03,OVC,,0.03,WeatherDisplay:10.37,2013-01-17 07:48:00,
2013-01-17 02:53:00,36.0,33.9,29.84,SSW,202,0.0,0.6,92,0.03,OVC,,0.03,WeatherDisplay:10.37,2013-01-17 07:53:00,
2013-01-17 02:58:00,36.0,33.9,29.84,West,270,0.0,0.5,92,0.03,OVC,,0.03,WeatherDisplay:10.37,2013-01-17 07:58:00,
2013-01-17 03:03:00,36.0,33.9,29.83,SW,225,2.3,2.3,92,0.00,OVC,,0.03,WeatherDisplay:10.37,2013-01-17 08:03:00,
2013-01-17 03:08:00,36.0,33.9,29.83,WSW,248,2.3,2.3,92,0.00,OVC,,0.03,WeatherDisplay:10.37,2013-01-17 08:08:00,
2013-01-17 03:13:00,36.1,34.0,29.83,WSW,248,2.3,2.3,92,0.00,OVC,,0.03,WeatherDisplay:10.37,2013-01-17 08:13:00,
2013-01-17 03:18:00,36.1,34.0,29.83,SW,225,2.3,2.3,92,0.00,OVC,,0.03,WeatherDisplay:10.37,2013-01-17 08:18:00,
2013-01-17 03:23:00,36.3,34.2,29.83,WSW,248,2.3,2.3,92,0.00,OVC,,0.03,WeatherDisplay:10.37,2013-01-17 08:23:00,
2013-01-17 03:28:00,36.1,34.0,29.83,WSW,248,2.3,2.3,92,0.00,OVC,,0.03,WeatherDisplay:10.37,2013-01-17 08:28:00,
2013-01-17 03:33:00,36.1,34.0,29.83,West,270,3.5,3.5,92,0.00,OVC,,0.03,WeatherDisplay:10.37,2013-01-17 08:33:00,
2013-01-17 03:38:00,36.3,33.9,29.83,WSW,248,2.3,2.3,91,0.00,OVC,,0.03,WeatherDisplay:10.37,2013-01-17 08:38:00,
2013-01-17 03:43:00,36.3,33.9,29.83,South,180,2.3,2.3,91,0.00,OVC,,0.03,WeatherDisplay:10.37,2013-01-17 08:43:00,
2013-01-17 03:48:00,36.7,34.3,29.83,WNW,292,4.6,4.6,91,0.00,OVC,,0.03,WeatherDisplay:10.37,2013-01-17 08:48:00,
2013-01-17 03:53:00,36.7,34.3,29.83,NW,315,2.3,2.5,91,0.00,OVC,,0.03,WeatherDisplay:10.37,2013-01-17 08:53:00,
2013-01-17 03:58:00,36.7,34.3,29.83,WNW,292,3.5,3.5,91,0.00,OVC,,0.03,WeatherDisplay:10.37,2013-01-17 08:58:00,
2013-01-17 04:03:00,36.7,34.3,29.84,WSW,248,4.7,4.7,91,0.00,OVC,,0.03,WeatherDisplay:10.37,2013-01-17 09:03:00,
2013-01-17 04:08:00,36.7,34.0,29.84,NW,315,2.3,2.3,90,0.00,OVC,,0.03,WeatherDisplay:10.37,2013-01-17 09:08:00,
2013-01-17 04:13:00,36.7,34.0,29.84,NW,315,3.5,3.5,90,0.00,OVC,,0.03,WeatherDisplay:10.37,2013-01-17 09:13:00,
2013-01-17 04:18:00,36.7,33.7,29.84,WNW,292,3.7,3.7,89,0.00,OVC,,0.03,WeatherDisplay:10.37,2013-01-17 09:18:00,
2013-01-17 04:23:00,36.9,33.9,29.82,NW,315,3.5,3.5,89,0.00,OVC,,0.03,WeatherDisplay:10.37,2013-01-17 09:23:00,
2013-01-17 04:28:00,37.0,34.1,29.82,WNW,292,4.6,4.6,89,0.00,OVC,,0.03,WeatherDisplay:10.37,2013-01-17 09:28:00,
2013-01-17 04:34:00,37.0,34.1,29.82,WNW,292,3.5,3.5,89,0.00,OVC,,0.03,WeatherDisplay:10.37,2013-01-17 09:34:00,
2013-01-17 04:39:00,36.9,33.9,29.82,WNW,292,2.3,2.3,89,0.00,OVC,,0.03,WeatherDisplay:10.37,2013-01-17 09:39:00,
2013-01-17 04:44:00,36.9,33.9,29.82,NW,315,2.3,2.3,89,0.00,OVC,,0.03,WeatherDisplay:10.37,2013-01-17 09:44:00,
2013-01-17 04:49:00,36.9,33.6,29.82,WSW,248,4.6,4.6,88,0.00,OVC,,0.03,WeatherDisplay:10.37,2013-01-17 09:49:00,
2013-01-17 04:54:00,36.9,33.6,29.82,ENE,68,4.6,4.6,88,0.00,OVC,,0.03,WeatherDisplay:10.37,2013-01-17 09:54:00,
2013-01-17 04:59:00,37.0,33.8,29.82,West,270,4.6,4.6,88,0.00,OVC,,0.03,WeatherDisplay:10.37,2013-01-17 09:59:00,
2013-01-17 05:04:00,36.9,33.4,29.82,West,270,3.9,3.9,87,0.00,OVC,,0.03,WeatherDisplay:10.37,2013-01-17 10:04:00,
2013-01-17 05:09:00,37.0,33.5,29.82,North,0,3.5,3.5,87,0.00,OVC,,0.03,WeatherDisplay:10.37,2013-01-17 10:09:00,
2013-01-17 05:14:00,37.0,33.5,29.82,West,270,2.4,2.6,87,0.00,OVC,,0.03,WeatherDisplay:10.37,2013-01-17 10:14:00,
2013-01-17 05:19:00,36.9,33.4,29.83,South,180,3.5,3.5,87,0.00,OVC,,0.03,WeatherDisplay:10.37,2013-01-17 10:19:00,
2013-01-17 05:24:00,37.0,33.5,29.83,West,270,2.6,2.6,87,0.00,OVC,,0.03,WeatherDisplay:10.37,2013-01-17 10:24:00,
2013-01-17 05:29:00,37.0,33.2,29.83,WSW,248,4.6,4.6,86,0.00,OVC,,0.03,WeatherDisplay:10.37,2013-01-17 10:29:00,
2013-01-17 05:34:00,36.9,33.1,29.83,NNW,338,4.9,4.9,86,0.00,OVC,,0.03,WeatherDisplay:10.37,2013-01-17 10:34:00,
2013-01-17 05:39:00,37.0,32.9,29.86,WSW,248,4.6,4.6,85,0.00,OVC,,0.03,WeatherDisplay:10.37,2013-01-17 10:39:00,
2013-01-17 05:44:00,37.0,32.9,29.86,West,270,3.5,3.5,85,0.00,OVC,,0.03,WeatherDisplay:10.37,2013-01-17 10:44:00,
2013-01-17 05:49:00,37.0,32.9,29.86,NW,315,6.9,6.9,85,0.00,OVC,,0.03,WeatherDisplay:10.37,2013-01-17 10:49:00,
2013-01-17 05:54:00,37.0,32.9,29.86,West,270,5.2,5.2,85,0.00,OVC,,0.03,WeatherDisplay:10.37,2013-01-17 10:54:00,
2013-01-17 05:59:00,37.0,32.7,29.86,West,270,4.6,4.6,84,0.00,OVC,,0.03,WeatherDisplay:10.37,2013-01-17 10:59:00,
2013-01-17 06:04:00,37.0,32.9,29.86,West,270,3.9,3.9,85,0.00,OVC,,0.03,WeatherDisplay:10.37,2013-01-17 11:04:00,
2013-01-17 06:09:00,37.0,32.9,29.86,NW,315,3.1,3.1,85,0.00,OVC,,0.03,WeatherDisplay:10.37,2013-01-17 11:09:00,
2013-01-17 06:14:00,37.0,32.9,29.86,West,270,3.9,3.9,85,0.00,OVC,,0.03,WeatherDisplay:10.37,2013-01-17 11:14:00,
2013-01-17 06:19:00,37.0,32.9,29.88,West,270,3.5,3.5,85,0.00,OVC,,0.03,WeatherDisplay:10.37,2013-01-17 11:19:00,
2013-01-17 06:24:00,36.9,32.8,29.88,West,270,2.6,2.6,85,0.00,OVC,,0.03,WeatherDisplay:10.37,2013-01-17 11:24:00,
2013-01-17 06:29:00,36.9,32.8,29.88,West,270,3.5,3.5,85,0.00,OVC,,0.03,WeatherDisplay:10.37,2013-01-17 11:29:00,
2013-01-17 06:34:00,36.9,32.8,29.88,WSW,248,3.5,3.5,85,0.00,OVC,,0.03,WeatherDisplay:10.37,2013-01-17 11:34:00,
2013-01-17 06:39:00,37.0,32.9,29.89,WSW,248,2.3,2.3,85,0.00,OVC,,0.03,WeatherDisplay:10.37,2013-01-17 11:39:00,
2013-01-17 06:44:00,36.9,32.8,29.89,West,270,4.6,4.6,85,0.00,OVC,,0.03,WeatherDisplay:10.37,2013-01-17 11:44:00,
2013-01-17 06:49:00,36.9,32.8,29.89,West,270,3.5,3.5,85,0.00,OVC,,0.03,WeatherDisplay:10.37,2013-01-17 11:49:00,
2013-01-17 06:54:00,36.9,32.5,29.89,NW,315,3.5,3.5,84,0.00,OVC,,0.03,WeatherDisplay:10.37,2013-01-17 11:54:00,
2013-01-17 06:59:00,36.9,32.8,29.89,NW,315,2.3,2.3,85,0.00,OVC,,0.03,WeatherDisplay:10.37,2013-01-17 11:59:00,
2013-01-17 07:04:00,36.7,32.6,29.89,NNW,338,4.6,4.6,85,0.00,OVC,,0.03,WeatherDisplay:10.37,2013-01-17 12:04:00,
2013-01-17 07:09:00,36.5,32.1,29.89,West,270,2.3,2.3,84,0.00,OVC,,0.03,WeatherDisplay:10.37,2013-01-17 12:09:00,
2013-01-17 07:14:00,36.7,32.3,29.89,WNW,292,2.3,2.3,84,0.00,OVC,,0.03,WeatherDisplay:10.37,2013-01-17 12:14:00,
2013-01-17 07:19:00,36.7,32.3,29.91,West,270,3.5,3.5,84,0.00,OVC,,0.03,WeatherDisplay:10.37,2013-01-17 12:19:00,
2013-01-17 07:24:00,36.9,31.9,29.91,NW,315,5.8,5.8,82,0.00,OVC,,0.03,WeatherDisplay:10.37,2013-01-17 12:24:00,
2013-01-17 07:29:00,36.9,32.2,29.91,NW,315,4.6,4.6,83,0.00,OVC,,0.03,WeatherDisplay:10.37,2013-01-17 12:29:00,
2013-01-17 07:34:00,36.7,32.3,29.91,NW,315,2.3,2.3,84,0.00,OVC,,0.03,WeatherDisplay:10.37,2013-01-17 12:34:00,
2013-01-17 07:39:00,36.9,32.2,29.90,WNW,292,2.3,2.3,83,0.00,OVC,,0.03,WeatherDisplay:10.37,2013-01-17 12:39:00,
2013-01-17 07:44:00,36.7,32.0,29.90,NW,315,2.3,2.3,83,0.00,OVC,,0.03,WeatherDisplay:10.37,2013-01-17 12:44:00,
2013-01-17 07:49:00,37.0,32.4,29.90,West,270,3.5,3.5,83,0.00,OVC,,0.03,WeatherDisplay:10.37,2013-01-17 12:49:00,
2013-01-17 07:54:00,36.9,32.2,29.90,NW,315,3.5,3.5,83,0.00,OVC,,0.03,WeatherDisplay:10.37,2013-01-17 12:54:00,
2013-01-17 08:00:00,37.2,32.2,29.93,West,270,6.9,6.9,82,0.00,OVC,,0.03,WeatherDisplay:10.37,2013-01-17 13:00:00,
2013-01-17 08:05:00,37.4,32.1,29.93,West,270,2.3,2.8,81,0.00,OVC,,0.03,WeatherDisplay:10.37,2013-01-17 13:05:00,
2013-01-17 08:10:00,37.2,32.2,29.93,West,270,2.3,2.6,82,0.00,OVC,,0.03,WeatherDisplay:10.37,2013-01-17 13:10:00,
2013-01-17 08:15:00,37.2,31.9,29.93,WNW,292,2.3,2.3,81,0.00,OVC,,0.03,WeatherDisplay:10.37,2013-01-17 13:15:00,
2013-01-17 08:20:00,37.2,31.9,29.94,NW,315,4.6,4.6,81,0.00,OVC,,0.03,WeatherDisplay:10.37,2013-01-17 13:20:00,
2013-01-17 08:25:00,37.4,32.1,29.94,West,270,3.5,3.5,81,0.00,OVC,,0.03,WeatherDisplay:10.37,2013-01-17 13:25:00,
2013-01-17 08:30:00,37.4,32.4,29.94,West,270,2.3,2.4,82,0.00,OVC,,0.03,WeatherDisplay:10.37,2013-01-17 13:30:00,
2013-01-17 08:35:00,37.4,32.4,29.94,WSW,248,2.3,2.3,82,0.00,OVC,,0.03,WeatherDisplay:10.37,2013-01-17 13:35:00,
2013-01-17 08:40:00,37.4,32.1,29.95,West,270,4.6,4.6,81,0.00,OVC,,0.03,WeatherDisplay:10.37,2013-01-17 13:40:00,
2013-01-17 08:45:00,37.6,32.6,29.95,NW,315,2.3,2.3,82,0.00,OVC,,0.03,WeatherDisplay:10.37,2013-01-17 13:45:00,
2013-01-17 08:50:00,37.4,32.1,29.95,WNW,292,2.3,2.3,81,0.00,OVC,,0.03,WeatherDisplay:10.37,2013-01-17 13:50:00,
2013-01-17 08:55:00,37.6,32.6,29.95,West,270,2.3,2.3,82,0.00,OVC,,0.03,WeatherDisplay:10.37,2013-01-17 13:55:00,
2013-01-17 09:00:00,37.8,32.5,29.96,West,270,3.5,3.5,81,0.00,OVC,,0.03,WeatherDisplay:10.37,2013-01-17 14:00:00,
2013-01-17 09:05:00,37.6,32.0,29.96,NW,315,3.5,3.5,80,0.00,OVC,,0.03,WeatherDisplay:10.37,2013-01-17 14:05:00,
2013-01-17 09:10:00,37.8,32.1,29.96,NW,315,2.3,2.6,80,0.00,OVC,,0.03,WeatherDisplay:10.37,2013-01-17 14:10:00,
2013-01-17 09:15:00,38.1,32.5,29.96,WSW,248,2.3,2.3,80,0.00,OVC,,0.03,WeatherDisplay:10.37,2013-01-17 14:15:00,
2013-01-17 09:20:00,38.1,32.5,29.97,SSW,202,3.5,3.5,80,0.00,OVC,,0.03,WeatherDisplay:10.37,2013-01-17 14:20:00,
2013-01-17 09:25:00,38.3,32.7,29.97,West,270,3.5,3.5,80,0.00,OVC,,0.03,WeatherDisplay:10.37,2013-01-17 14:25:00,
2013-01-17 09:30:00,38.8,33.2,29.97,West,270,2.3,2.3,80,0.00,OVC,,0.03,WeatherDisplay:10.37,2013-01-17 14:30:00,
2013-01-17 09:35:00,39.0,32.7,29.97,WSW,248,2.3,2.4,78,0.00,OVC,,0.03,WeatherDisplay:10.37,2013-01-17 14:35:00,
2013-01-17 09:40:00,39.6,33.3,29.96,West,270,4.6,4.6,78,0.00,OVC,,0.03,WeatherDisplay:10.37,2013-01-17 14:40:00,
2013-01-17 09:45:00,39.7,33.1,29.96,WNW,292,4.6,4.6,77,0.00,OVC,,0.03,WeatherDisplay:10.37,2013-01-17 14:45:00,
2013-01-17 09:50:00,40.3,33.0,29.96,West,270,4.6,4.6,75,0.00,OVC,,0.03,WeatherDisplay:10.37,2013-01-17 14:50:00,
2013-01-17 09:55:00,40.3,32.6,29.96,WSW,248,3.5,3.5,74,0.00,OVC,,0.03,WeatherDisplay:10.37,2013-01-17 14:55:00,
2013-01-17 10:00:00,40.6,33.3,29.96,NW,315,1.1,2.9,75,0.00,OVC,,0.03,WeatherDisplay:10.37,2013-01-17 15:00:00,
2013-01-17 10:05:00,41.2,33.2,29.96,West,270,5.8,5.8,73,0.00,OVC,,0.03,WeatherDisplay:10.37,2013-01-17 15:05:00,
2013-01-17 10:10:00,41.7,33.0,29.96,West,270,8.1,8.1,71,0.00,OVC,,0.03,WeatherDisplay:10.37,2013-01-17 15:10:00,
2013-01-17 10:15:00,42.1,33.0,29.96,NW,315,5.8,5.8,70,0.00,OVC,,0.03,WeatherDisplay:10.37,2013-01-17 15:15:00,
2013-01-17 10:20:00,42.4,33.3,29.95,NNW,338,5.8,5.8,70,0.00,OVC,,0.03,WeatherDisplay:10.37,2013-01-17 15:20:00,
2013-01-17 10:25:00,42.4,33.3,29.95,NNE,22,4.6,4.6,70,0.00,OVC,,0.03,WeatherDisplay:10.37,2013-01-17 15:25:00,
2013-01-17 10:30:00,42.4,32.6,29.95,NW,315,13.8,13.8,68,0.00,OVC,,0.03,WeatherDisplay:10.37,2013-01-17 15:30:00,
2013-01-17 10:35:00,42.1,32.6,29.95,NW,315,5.8,5.8,69,0.00,OVC,,0.03,WeatherDisplay:10.37,2013-01-17 15:35:00,
2013-01-17 10:40:00,41.9,32.5,29.97,West,270,5.8,5.8,69,0.00,OVC,,0.03,WeatherDisplay:10.37,2013-01-17 15:40:00,
2013-01-17 10:45:00,41.9,32.1,29.97,North,0,2.3,3.9,68,0.00,OVC,,0.03,WeatherDisplay:10.37,2013-01-17 15:45:00,
2013-01-17 10:50:00,41.7,31.9,29.97,West,270,5.8,5.8,68,0.00,OVC,,0.03,WeatherDisplay:10.37,2013-01-17 15:50:00,
2013-01-17 10:55:00,41.7,31.9,29.97,NNW,338,4.6,4.6,68,0.00,OVC,,0.03,WeatherDisplay:10.37,2013-01-17 15:55:00,
2013-01-17 11:00:00,41.5,32.1,29.97,NW,315,5.1,5.1,69,0.00,OVC,,0.03,WeatherDisplay:10.37,2013-01-17 16:00:00,
2013-01-17 11:05:00,41.7,31.9,29.97,NW,315,5.4,5.4,68,0.00,OVC,,0.03,WeatherDisplay:10.37,2013-01-17 16:05:00,
2013-01-17 11:10:00,41.9,32.1,29.97,West,270,4.6,4.6,68,0.00,OVC,,0.03,WeatherDisplay:10.37,2013-01-17 16:10:00,
2013-01-17 11:15:00,41.7,31.9,29.97,West,270,5.4,5.4,68,0.00,OVC,,0.03,WeatherDisplay:10.37,2013-01-17 16:15:00,
2013-01-17 11:20:00,41.7,31.6,29.96,NW,315,6.9,6.9,67,0.00,OVC,,0.03,WeatherDisplay:10.37,2013-01-17 16:20:00,
2013-01-17 11:25:00,41.7,31.9,29.96,WSW,248,2.3,3.9,68,0.00,OVC,,0.03,WeatherDisplay:10.37,2013-01-17 16:25:00,
2013-01-17 11:30:00,41.9,31.7,29.96,West,270,8.1,8.1,67,0.00,OVC,,0.03,WeatherDisplay:10.37,2013-01-17 16:30:00,
2013-01-17 11:35:00,41.9,31.7,29.96,NW,315,4.6,4.6,67,0.00,OVC,,0.03,WeatherDisplay:10.37,2013-01-17 16:35:00,
2013-01-17 11:40:00,41.9,31.7,29.96,NNW,338,4.6,4.6,67,0.00,OVC,,0.03,WeatherDisplay:10.37,2013-01-17 16:40:00,
2013-01-17 11:45:00,42.1,31.9,29.96,NNW,338,5.8,5.8,67,0.00,OVC,,0.03,WeatherDisplay:10.37,2013-01-17 16:45:00,
2013-01-17 11:50:00,41.9,31.4,29.96,North,0,8.1,8.1,66,0.00,OVC,,0.03,WeatherDisplay:10.37,2013-01-17 16:50:00,
2013-01-17 11:55:00,42.1,32.3,29.96,West,270,5.8,5.8,68,0.00,OVC,,0.03,WeatherDisplay:10.37,2013-01-17 16:55:00,
2013-01-17 12:00:00,42.3,32.1,29.95,WSW,248,4.6,4.6,67,0.00,OVC,,0.03,WeatherDisplay:10.37,2013-01-17 17:00:00,
2013-01-17 12:05:00,42.6,32.4,29.95,WNW,292,2.3,3.3,67,0.00,OVC,,0.03,WeatherDisplay:10.37,2013-01-17 17:05:00,
2013-01-17 12:10:00,42.6,32.0,29.95,WNW,292,2.3,3.3,66,0.00,OVC,,0.03,WeatherDisplay:10.37,2013-01-17 17:10:00,
2013-01-17 12:15:00,43.2,32.6,29.95,WNW,292,5.8,5.8,66,0.00,OVC,,0.03,WeatherDisplay:10.37,2013-01-17 17:15:00,
2013-01-17 12:20:00,43.5,32.9,29.97,NNW,338,3.7,3.7,66,0.00,OVC,,0.03,WeatherDisplay:10.37,2013-01-17 17:20:00,
2013-01-17 12:25:00,43.9,32.5,29.97,NW,315,4.6,4.6,64,0.00,OVC,,0.03,WeatherDisplay:10.37,2013-01-17 17:25:00,
2013-01-17 12:30:00,43.7,31.5,29.97,NNW,338,10.4,10.4,62,0.00,OVC,,0.03,WeatherDisplay:10.37,2013-01-17 17:30:00,
2013-01-17 12:35:00,44.2,31.6,29.97,NW,315,4.6,5.2,61,0.00,OVC,,0.03,WeatherDisplay:10.37,2013-01-17 17:35:00,
2013-01-17 12:40:00,44.4,31.8,29.95,NW,315,9.5,9.5,61,0.00,OVC,,0.03,WeatherDisplay:10.37,2013-01-17 17:40:00,
2013-01-17 12:45:00,44.6,31.1,29.95,NW,315,5.9,5.9,59,0.00,OVC,,0.03,WeatherDisplay:10.37,2013-01-17 17:45:00,
2013-01-17 12:50:00,44.8,32.1,29.95,NW,315,6.1,6.1,61,0.00,OVC,,0.03,WeatherDisplay:10.37,2013-01-17 17:50:00,
2013-01-17 12:55:00,44.8,31.3,29.95,NNE,22,4.6,4.6,59,0.00,OVC,,0.03,WeatherDisplay:10.37,2013-01-17 17:55:00,
2013-01-17 13:00:00,44.6,31.1,29.95,WNW,292,4.7,4.7,59,0.00,OVC,,0.03,WeatherDisplay:10.37,2013-01-17 18:00:00,
2013-01-17 13:05:00,44.1,29.8,29.95,NW,315,5.8,5.8,57,0.00,OVC,,0.03,WeatherDisplay:10.37,2013-01-17 18:05:00,
2013-01-17 13:10:00,44.1,30.2,29.95,NW,315,6.6,6.6,58,0.00,OVC,,0.03,WeatherDisplay:10.37,2013-01-17 18:10:00,
2013-01-17 13:15:00,44.2,30.0,29.95,NNW,338,5.8,5.8,57,0.00,OVC,,0.03,WeatherDisplay:10.37,2013-01-17 18:15:00,
2013-01-17 13:20:00,43.9,29.6,29.94,NW,315,10.4,10.4,57,0.00,OVC,,0.03,WeatherDisplay:10.37,2013-01-17 18:20:00,
2013-01-17 13:25:00,44.1,30.2,29.94,NW,315,6.2,6.2,58,0.00,OVC,,0.03,WeatherDisplay:10.37,2013-01-17 18:25:00,
2013-01-17 13:31:00,43.9,30.0,29.94,NNW,338,7.6,7.6,58,0.00,OVC,,0.03,WeatherDisplay:10.37,2013-01-17 18:31:00,
2013-01-17 13:36:00,43.9,30.0,29.94,NW,315,8.1,8.1,58,0.00,OVC,,0.03,WeatherDisplay:10.37,2013-01-17 18:36:00,
2013-01-17 13:41:00,44.1,30.2,29.94,NNW,338,6.9,6.9,58,0.00,OVC,,0.03,WeatherDisplay:10.37,2013-01-17 18:41:00,
2013-01-17 13:46:00,44.1,30.2,29.94,SSW,202,4.6,4.6,58,0.00,OVC,,0.03,WeatherDisplay:10.37,2013-01-17 18:46:00,
2013-01-17 13:51:00,44.2,30.4,29.94,NNW,338,6.2,6.2,58,0.00,OVC,,0.03,WeatherDisplay:10.37,2013-01-17 18:51:00,
2013-01-17 13:56:00,44.2,30.8,29.94,West,270,8.1,8.1,59,0.00,OVC,,0.03,WeatherDisplay:10.37,2013-01-17 18:56:00,
2013-01-17 14:01:00,44.6,30.7,29.93,NW,315,6.9,6.9,58,0.00,OVC,,0.03,WeatherDisplay:10.37,2013-01-17 19:01:00,
2013-01-17 14:06:00,44.2,30.4,29.93,NW,315,5.8,5.8,58,0.00,OVC,,0.03,WeatherDisplay:10.37,2013-01-17 19:06:00,
2013-01-17 14:11:00,44.1,29.8,29.93,NW,315,5.8,5.8,57,0.00,OVC,,0.03,WeatherDisplay:10.37,2013-01-17 19:11:00,
2013-01-17 14:16:00,44.2,30.4,29.93,NW,315,8.1,8.1,58,0.00,OVC,,0.03,WeatherDisplay:10.37,2013-01-17 19:16:00,
2013-01-17 14:21:00,44.1,29.8,29.94,NW,315,5.4,5.4,57,0.00,OVC,,0.03,WeatherDisplay:10.37,2013-01-17 19:21:00,
2013-01-17 14:26:00,44.1,29.8,29.94,NW,315,5.8,5.8,57,0.00,OVC,,0.03,WeatherDisplay:10.37,2013-01-17 19:26:00,
2013-01-17 14:31:00,43.9,29.6,29.94,NNW,338,9.2,9.2,57,0.00,OVC,,0.03,WeatherDisplay:10.37,2013-01-17 19:31:00,
2013-01-17 14:36:00,43.9,30.0,29.94,West,270,4.6,4.6,58,0.00,OVC,,0.03,WeatherDisplay:10.37,2013-01-17 19:36:00,
2013-01-17 14:41:00,43.3,28.7,29.93,NW,315,10.4,10.4,56,0.00,OVC,,0.03,WeatherDisplay:10.37,2013-01-17 19:41:00,
2013-01-17 14:46:00,43.3,29.1,29.93,NNW,338,11.5,11.5,57,0.00,OVC,,0.03,WeatherDisplay:10.37,2013-01-17 19:46:00,
2013-01-17 14:51:00,43.2,29.4,29.93,NNW,338,4.6,4.7,58,0.00,OVC,,0.03,WeatherDisplay:10.37,2013-01-17 19:51:00,
2013-01-17 14:56:00,43.2,28.9,29.93,NNW,338,4.6,4.6,57,0.00,OVC,,0.03,WeatherDisplay:10.37,2013-01-17 19:56:00,
2013-01-17 15:01:00,42.8,29.0,29.94,NNW,338,5.8,5.8,58,0.00,OVC,,0.03,WeatherDisplay:10.37,2013-01-17 20:01:00,
2013-01-17 15:07:00,42.6,28.9,29.94,NW,315,1.1,4.1,58,0.00,OVC,,0.03,WeatherDisplay:10.37,2013-01-17 20:07:00,
2013-01-17 15:12:00,42.4,28.3,29.94,NW,315,1.1,4.1,57,0.00,OVC,,0.03,WeatherDisplay:10.37,2013-01-17 20:12:00,
2013-01-17 15:17:00,42.4,28.3,29.94,NNE,22,6.9,6.9,57,0.00,OVC,,0.03,WeatherDisplay:10.37,2013-01-17 20:17:00,
2013-01-17 15:22:00,42.4,28.3,29.94,West,270,6.9,6.9,57,0.00,OVC,,0.03,WeatherDisplay:10.37,2013-01-17 20:22:00,
2013-01-17 15:27:00,42.1,28.4,29.94,NW,315,6.9,6.9,58,0.00,OVC,,0.03,WeatherDisplay:10.37,2013-01-17 20:27:00,
2013-01-17 15:32:00,42.1,28.8,29.94,NW,315,4.6,4.6,59,0.00,OVC,,0.03,WeatherDisplay:10.37,2013-01-17 20:32:00,
2013-01-17 15:37:00,41.9,28.2,29.94,NNW,338,6.9,6.9,58,0.00,OVC,,0.03,WeatherDisplay:10.37,2013-01-17 20:37:00,
2013-01-17 15:42:00,41.9,27.8,29.94,North,0,6.9,6.9,57,0.00,OVC,,0.03,WeatherDisplay:10.37,2013-01-17 20:42:00,
2013-01-17 15:47:00,41.9,27.8,29.94,NW,315,4.0,4.0,57,0.00,OVC,,0.03,WeatherDisplay:10.37,2013-01-17 20:47:00,
2013-01-17 15:52:00,41.7,28.0,29.94,WNW,292,4.6,4.6,58,0.00,OVC,,0.03,WeatherDisplay:10.37,2013-01-17 20:52:00,
2013-01-17 15:57:00,41.5,27.8,29.94,NNW,338,4.6,4.6,58,0.00,OVC,,0.03,WeatherDisplay:10.37,2013-01-17 20:57:00,
2013-01-17 16:02:00,41.7,28.0,29.95,North,0,2.3,2.8,58,0.00,OVC,,0.03,WeatherDisplay:10.37,2013-01-17 21:02:00,
2013-01-17 16:07:00,41.5,28.3,29.95,NW,315,3.5,3.5,59,0.00,OVC,,0.03,WeatherDisplay:10.37,2013-01-17 21:07:00,
2013-01-17 16:12:00,41.2,27.5,29.95,NNE,22,5.8,5.8,58,0.00,OVC,,0.03,WeatherDisplay:10.37,2013-01-17 21:12:00,
2013-01-17 16:17:00,41.2,28.3,29.95,NW,315,2.3,2.5,60,0.00,OVC,,0.03,WeatherDisplay:10.37,2013-01-17 21:17:00,
2013-01-17 16:22:00,41.0,27.3,29.95,NW,315,4.6,4.6,58,0.00,OVC,,0.03,WeatherDisplay:10.37,2013-01-17 21:22:00,
2013-01-17 16:27:00,41.0,28.2,29.95,NNW,338,3.5,3.5,60,0.00,OVC,,0.03,WeatherDisplay:10.37,2013-01-17 21:27:00,
2013-01-17 16:32:00,41.0,27.8,29.95,NW,315,4.6,4.6,59,0.00,OVC,,0.03,WeatherDisplay:10.37,2013-01-17 21:32:00,
2013-01-17 16:37:00,41.0,27.8,29.95,WNW,292,2.3,2.4,59,0.00,OVC,,0.03,WeatherDisplay:10.37,2013-01-17 21:37:00,
2013-01-17 16:42:00,41.0,27.8,29.97,NNW,338,4.6,4.6,59,0.00,OVC,,0.03,WeatherDisplay:10.37,2013-01-17 21:42:00,
2013-01-17 16:47:00,40.8,27.6,29.97,NW,315,5.8,5.8,59,0.00,OVC,,0.03,WeatherDisplay:10.37,2013-01-17 21:47:00,
2013-01-17 16:52:00,40.5,27.7,29.97,NNW,338,2.3,2.3,60,0.00,OVC,,0.03,WeatherDisplay:10.37,2013-01-17 21:52:00,
2013-01-17 16:57:00,40.6,27.8,29.97,NW,315,2.3,2.3,60,0.00,OVC,,0.03,WeatherDisplay:10.37,2013-01-17 21:57:00,
2013-01-17 17:02:00,40.5,27.7,29.97,West,270,3.5,3.5,60,0.00,OVC,,0.03,WeatherDisplay:10.37,2013-01-17 22:02:00,
2013-01-17 17:07:00,40.3,27.9,29.97,NW,315,2.3,2.3,61,0.00,OVC,,0.03,WeatherDisplay:10.37,2013-01-17 22:07:00,
2013-01-17 17:12:00,40.3,28.3,29.97,NW,315,1.1,1.1,62,0.00,OVC,,0.03,WeatherDisplay:10.37,2013-01-17 22:12:00,
2013-01-17 17:17:00,40.3,28.3,29.97,West,270,2.3,2.3,62,0.00,OVC,,0.03,WeatherDisplay:10.37,2013-01-17 22:17:00,
2013-01-17 17:22:00,40.1,27.7,29.98,NW,315,1.1,1.1,61,0.00,OVC,,0.03,WeatherDisplay:10.37,2013-01-17 22:22:00,
2013-01-17 17:27:00,40.3,28.3,29.98,NNW,338,0.0,0.7,62,0.00,OVC,,0.03,WeatherDisplay:10.37,2013-01-17 22:27:00,
2013-01-17 17:32:00,40.3,28.3,29.98,NW,315,0.0,0.2,62,0.00,OVC,,0.03,WeatherDisplay:10.37,2013-01-17 22:32:00,
2013-01-17 17:37:00,39.9,27.9,29.98,NE,45,0.0,0.3,62,0.00,OVC,,0.03,WeatherDisplay:10.37,2013-01-17 22:37:00,
2013-01-17 17:42:00,39.9,27.9,29.96,NW,315,0.0,0.5,62,0.00,OVC,,0.03,WeatherDisplay:10.37,2013-01-17 22:42:00,
2013-01-17 17:47:00,39.7,27.8,29.96,NW,315,0.0,0.5,62,0.00,OVC,,0.03,WeatherDisplay:10.37,2013-01-17 22:47:00,
2013-01-17 17:52:00,39.7,28.2,29.96,NW,315,1.1,1.1,63,0.00,OVC,,0.03,WeatherDisplay:10.37,2013-01-17 22:52:00,
2013-01-17 17:57:00,39.7,28.2,29.96,NW,315,0.0,0.2,63,0.00,OVC,,0.03,WeatherDisplay:10.37,2013-01-17 22:57:00,
2013-01-17 18:02:00,39.7,28.5,29.98,WNW,292,1.1,1.1,64,0.00,OVC,,0.03,WeatherDisplay:10.37,2013-01-17 23:02:00,
2013-01-17 18:07:00,39.7,28.9,29.98,West,270,0.0,0.1,65,0.00,OVC,,0.03,WeatherDisplay:10.37,2013-01-17 23:07:00,
2013-01-17 18:12:00,39.6,28.4,29.98,West,270,0.0,0.1,64,0.00,OVC,,0.03,WeatherDisplay:10.37,2013-01-17 23:12:00,
2013-01-17 18:17:00,39.6,28.4,29.98,WSW,248,1.1,1.1,64,0.00,OVC,,0.03,WeatherDisplay:10.37,2013-01-17 23:17:00,
2013-01-17 18:22:00,39.6,28.8,29.98,WNW,292,0.0,0.5,65,0.00,OVC,,0.03,WeatherDisplay:10.37,2013-01-17 23:22:00,
2013-01-17 18:27:00,39.6,28.4,29.98,NW,315,1.1,0.0,64,0.00,OVC,,0.03,WeatherDisplay:10.37,2013-01-17 23:27:00,
2013-01-17 18:32:00,39.4,28.2,29.98,NW,315,0.0,0.1,64,0.00,OVC,,0.03,WeatherDisplay:10.37,2013-01-17 23:32:00,
2013-01-17 18:37:00,39.6,28.8,29.98,NW,315,0.0,0.0,65,0.00,OVC,,0.03,WeatherDisplay:10.37,2013-01-17 23:37:00,
2013-01-17 18:42:00,39.6,29.1,29.99,West,270,0.0,0.0,66,0.00,OVC,,0.03,WeatherDisplay:10.37,2013-01-17 23:42:00,
2013-01-17 18:47:00,39.6,29.1,29.99,NW,315,0.0,0.0,66,0.00,OVC,,0.03,WeatherDisplay:10.37,2013-01-17 23:47:00,
2013-01-17 18:52:00,39.2,29.2,29.99,WNW,292,0.0,0.0,67,0.00,OVC,,0.03,WeatherDisplay:10.37,2013-01-17 23:52:00,
2013-01-17 18:57:00,39.2,28.4,29.99,NNW,338,0.0,0.0,65,0.00,OVC,,0.03,WeatherDisplay:10.37,2013-01-17 23:57:00,
2013-01-17 19:02:00,39.2,28.4,29.98,West,270,0.0,0.0,65,0.00,OVC,,0.03,WeatherDisplay:10.37,2013-01-18 00:02:00,
2013-01-17 19:07:00,39.2,28.8,29.98,North,0,0.0,0.0,66,0.00,OVC,,0.03,WeatherDisplay:10.37,2013-01-18 00:07:00,
2013-01-17 19:12:00,39.0,29.0,29.98,NW,315,0.0,0.0,67,0.00,OVC,,0.03,WeatherDisplay:10.37,2013-01-18 00:12:00,
2013-01-17 19:17:00,39.2,29.2,29.98,WNW,292,0.0,0.0,67,0.00,OVC,,0.03,WeatherDisplay:10.37,2013-01-18 00:17:00,
2013-01-17 19:23:00,39.0,29.0,29.99,NW,315,1.1,0.0,67,0.00,OVC,,0.03,WeatherDisplay:10.37,2013-01-18 00:23:00,
2013-01-17 19:28:00,39.0,29.0,29.99,South,180,0.0,0.0,67,0.00,OVC,,0.03,WeatherDisplay:10.37,2013-01-18 00:28:00,
2013-01-17 19:33:00,39.0,29.3,29.99,West,270,0.0,0.0,68,0.00,OVC,,0.03,WeatherDisplay:10.37,2013-01-18 00:33:00,
2013-01-17 19:38:00,38.8,29.2,29.99,West,270,0.0,0.0,68,0.00,OVC,,0.03,WeatherDisplay:10.37,2013-01-18 00:38:00,
2013-01-17 19:43:00,38.8,29.2,29.99,SSE,158,0.0,0.0,68,0.00,OVC,,0.03,WeatherDisplay:10.37,2013-01-18 00:43:00,
2013-01-17 19:48:00,38.8,29.5,29.99,SW,225,0.0,0.0,69,0.00,OVC,,0.03,WeatherDisplay:10.37,2013-01-18 00:48:00,
2013-01-17 19:53:00,38.8,29.2,29.99,NNW,338,0.0,0.0,68,0.00,OVC,,0.03,WeatherDisplay:10.37,2013-01-18 00:53:00,
2013-01-17 19:58:00,38.8,29.2,29.99,WNW,292,0.0,0.0,68,0.00,OVC,,0.03,WeatherDisplay:10.37,2013-01-18 00:58:00,
2013-01-17 20:03:00,38.8,29.5,29.99,WNW,292,0.0,0.0,69,0.00,OVC,,0.03,WeatherDisplay:10.37,2013-01-18 01:03:00,
2013-01-17 20:08:00,38.8,29.2,29.99,NW,315,0.0,0.0,68,0.00,OVC,,0.03,WeatherDisplay:10.37,2013-01-18 01:08:00,
2013-01-17 20:13:00,38.8,28.8,29.99,WNW,292,2.3,2.3,67,0.00,OVC,,0.03,WeatherDisplay:10.37,2013-01-18 01:13:00,
2013-01-17 20:18:00,38.8,28.8,29.99,WNW,292,2.3,2.3,67,0.00,OVC,,0.03,WeatherDisplay:10.37,2013-01-18 01:18:00,
2013-01-17 20:23:00,38.8,28.8,29.97,WSW,248,2.3,2.3,67,0.00,OVC,,0.03,WeatherDisplay:10.37,2013-01-18 01:23:00,
2013-01-17 20:28:00,38.7,28.6,29.97,NW,315,2.3,2.3,67,0.00,OVC,,0.03,WeatherDisplay:10.37,2013-01-18 01:28:00,
2013-01-17 20:33:00,38.8,28.8,29.97,WSW,248,3.5,3.5,67,0.00,OVC,,0.03,WeatherDisplay:10.37,2013-01-18 01:33:00,
2013-01-17 20:38:00,38.7,28.3,29.97,West,270,3.2,3.2,66,0.00,OVC,,0.03,WeatherDisplay:10.37,2013-01-18 01:38:00,
2013-01-17 20:43:00,38.8,28.1,29.96,NE,45,4.6,4.6,65,0.00,OVC,,0.03,WeatherDisplay:10.37,2013-01-18 01:43:00,
2013-01-17 20:48:00,38.8,27.7,29.96,NNW,338,5.8,5.8,64,0.00,OVC,,0.03,WeatherDisplay:10.37,2013-01-18 01:48:00,
2013-01-17 20:53:00,38.8,27.7,29.96,NNE,22,3.5,3.5,64,0.00,OVC,,0.03,WeatherDisplay:10.37,2013-01-18 01:53:00,
2013-01-17 20:58:00,38.7,27.5,29.96,NW,315,3.5,3.5,64,0.00,OVC,,0.03,WeatherDisplay:10.37,2013-01-18 01:58:00,
2013-01-17 21:03:00,38.5,27.4,29.97,WNW,292,3.5,3.5,64,0.00,OVC,,0.03,WeatherDisplay:10.37,2013-01-18 02:03:00,
2013-01-17 21:08:00,38.5,27.0,29.97,NW,315,6.9,6.9,63,0.00,OVC,,0.03,WeatherDisplay:10.37,2013-01-18 02:08:00,
2013-01-17 21:13:00,38.3,26.8,29.97,ENE,68,4.8,4.8,63,0.00,OVC,,0.03,WeatherDisplay:10.37,2013-01-18 02:13:00,
2013-01-17 21:18:00,38.3,26.8,29.97,NW,315,4.6,4.6,63,0.00,OVC,,0.03,WeatherDisplay:10.37,2013-01-18 02:18:00,
2013-01-17 21:23:00,38.1,27.0,29.96,NW,315,4.7,4.7,64,0.00,OVC,,0.03,WeatherDisplay:10.37,2013-01-18 02:23:00,
2013-01-17 21:28:00,38.1,26.6,29.96,NNW,338,8.9,8.9,63,0.00,OVC,,0.03,WeatherDisplay:10.37,2013-01-18 02:28:00,
2013-01-17 21:33:00,38.1,26.6,29.96,North,0,5.8,5.8,63,0.00,OVC,,0.03,WeatherDisplay:10.37,2013-01-18 02:33:00,
2013-01-17 21:38:00,38.1,26.6,29.96,NNE,22,5.8,5.8,63,0.00,OVC,,0.03,WeatherDisplay:10.37,2013-01-18 02:38:00,
2013-01-17 21:43:00,37.9,26.5,29.95,NNW,338,9.2,9.2,63,0.00,OVC,,0.03,WeatherDisplay:10.37,2013-01-18 02:43:00,
2013-01-17 21:48:00,37.8,26.7,29.95,NW,315,2.3,3.0,64,0.00,OVC,,0.03,WeatherDisplay:10.37,2013-01-18 02:48:00,
2013-01-17 21:53:00,37.8,26.7,29.95,ESE,112,2.3,2.3,64,0.00,BKN,,0.03,WeatherDisplay:10.37,2013-01-18 02:53:00,
2013-01-17 21:58:00,37.6,26.5,29.95,NNW,338,3.3,3.3,64,0.00,BKN,,0.03,WeatherDisplay:10.37,2013-01-18 02:58:00,
2013-01-17 22:03:00,37.6,26.5,29.95,NNW,338,4.6,4.6,64,0.00,BKN,,0.03,WeatherDisplay:10.37,2013-01-18 03:03:00,
2013-01-17 22:08:00,37.4,25.9,29.95,NNW,338,5.5,5.5,63,0.00,BKN,,0.03,WeatherDisplay:10.37,2013-01-18 03:08:00,
2013-01-17 22:13:00,37.4,26.3,29.95,NNW,338,3.5,3.5,64,0.00,BKN,,0.03,WeatherDisplay:10.37,2013-01-18 03:13:00,
2013-01-17 22:18:00,37.4,26.3,29.95,NW,315,2.3,2.4,64,0.00,BKN,,0.03,WeatherDisplay:10.37,2013-01-18 03:18:00,
2013-01-17 22:23:00,37.2,25.8,29.94,NNW,338,6.4,6.4,63,0.00,BKN,,0.03,WeatherDisplay:10.37,2013-01-18 03:23:00,
2013-01-17 22:28:00,37.0,25.6,29.94,NW,315,6.9,6.9,63,0.00,BKN,,0.03,WeatherDisplay:10.37,2013-01-18 03:28:00,
2013-01-17 22:33:00,37.0,25.6,29.94,NW,315,4.6,4.6,63,0.00,BKN,,0.03,WeatherDisplay:10.37,2013-01-18 03:33:00,
2013-01-17 22:38:00,36.9,25.8,29.94,NE,45,4.6,4.6,64,0.00,BKN,,0.03,WeatherDisplay:10.37,2013-01-18 03:38:00,
2013-01-17 22:43:00,36.9,25.8,29.90,North,0,3.5,3.5,64,0.00,BKN,,0.03,WeatherDisplay:10.37,2013-01-18 03:43:00,
2013-01-17 22:48:00,36.9,26.2,29.90,NNW,338,3.5,3.5,65,0.00,BKN,,0.03,WeatherDisplay:10.37,2013-01-18 03:48:00,
2013-01-17 22:53:00,36.7,26.0,29.90,NW,315,4.6,4.6,65,0.00,BKN,,0.03,WeatherDisplay:10.37,2013-01-18 03:53:00,
2013-01-17 22:58:00,36.7,26.0,29.90,WNW,292,0.0,1.1,65,0.00,BKN,,0.03,WeatherDisplay:10.37,2013-01-18 03:58:00,
2013-01-17 23:03:00,36.7,26.4,29.94,NW,315,2.3,2.3,66,0.00,BKN,,0.03,WeatherDisplay:10.37,2013-01-18 04:03:00,
2013-01-17 23:08:00,36.5,26.2,29.94,NW,315,0.0,0.5,66,0.00,BKN,,0.03,WeatherDisplay:10.37,2013-01-18 04:08:00,
2013-01-17 23:13:00,36.5,26.2,29.94,NW,315,2.3,2.3,66,0.00,BKN,,0.03,WeatherDisplay:10.37,2013-01-18 04:13:00,
2013-01-17 23:18:00,36.7,26.4,29.94,North,0,2.3,2.3,66,0.00,BKN,,0.03,WeatherDisplay:10.37,2013-01-18 04:18:00,
2013-01-17 23:23:00,36.7,26.4,29.93,NNE,22,1.1,1.1,66,0.00,BKN,,0.03,WeatherDisplay:10.37,2013-01-18 04:23:00,
2013-01-17 23:28:00,36.7,26.4,29.93,NNE,22,1.1,1.1,66,0.00,BKN,,0.03,WeatherDisplay:10.37,2013-01-18 04:28:00,
2013-01-17 23:33:00,36.7,26.4,29.93,NW,315,2.3,2.3,66,0.00,BKN,,0.03,WeatherDisplay:10.37,2013-01-18 04:33:00,
2013-01-17 23:39:00,36.5,26.2,29.94,NW,315,2.3,2.3,66,0.00,BKN,,0.03,WeatherDisplay:10.37,2013-01-18 04:39:00,
2013-01-17 23:44:00,36.3,26.0,29.94,NNE,22,1.1,1.1,66,0.00,BKN,,0.03,WeatherDisplay:10.37,2013-01-18 04:44:00,
2013-01-17 23:49:00,36.3,26.0,29.94,NW,315,3.5,3.5,66,0.00,BKN,,0.03,WeatherDisplay:10.37,2013-01-18 04:49:00,
2013-01-17 23:54:00,36.3,26.0,29.94,North,0,2.3,2.3,66,0.00,BKN,,0.03,WeatherDisplay:10.37,2013-01-18 04:54:00,
2013-01-17 23:59:00,36.3,26.0,29.94,North,0,1.1,1.1,66,0.00,BKN,,0.03,WeatherDisplay:10.37,2013-01-18 04:59:00,